EW8926 Weather Reports


Display with metric or nautical units.
time (UTC)temp
F
wind
direction
speed
MPH
gust
MPH
rain 1hr
in
rain 24hr
in
rain mn
in
humidity
%
barometer
mb
20260905212604 77 160 1.0 2.0 0.00 0.00 0.00 77 1019.2
20260905212103 77 169 2.0 2.0 0.00 0.00 0.00 78 1018.9
20260905211604 77 160 2.0 2.0 0.00 0.00 0.00 78 1018.9
20260905211104 77 154 2.0 3.0 0.00 0.00 0.00 78 1018.9
20260905210604 78 135 2.0 5.0 0.00 0.00 0.00 78 1019.0
20260905210104 78 137 2.0 2.0 0.00 0.00 0.00 78 1019.0
20260905205604 78 137 2.0 2.0 0.00 0.00 0.00 78 1019.0
20260905205104 78 137 2.0 2.0 0.00 0.00 0.00 78 1019.0
20260905204604 78 132 2.0 6.0 0.00 0.00 0.00 78 1019.0
20260905204104 78 119 2.0 5.0 0.00 0.00 0.00 78 1019.0
20260905203604 78 133 2.0 6.0 0.00 0.00 0.00 77 1018.9
20260905203104 78 145 2.0 5.0 0.00 0.00 0.00 77 1018.9
20260905202604 78 153 2.0 5.0 0.00 0.00 0.00 77 1018.9
20260905201604 78 133 3.0 5.0 0.00 0.00 0.00 77 1018.8
20260905201104 78 143 3.0 8.0 0.00 0.00 0.00 77 1018.8
20260905200604 78 124 3.0 6.0 0.00 0.00 0.00 77 1018.8
20260905200104 78 122 3.0 5.0 0.00 0.00 0.00 77 1018.8
20260905195604 78 147 3.0 6.0 0.00 0.00 0.00 77 1018.8
20260905195104 78 138 3.0 5.0 0.00 0.00 0.00 77 1018.6
20260905194604 78 114 3.0 8.0 0.00 0.00 0.00 77 1018.6
20260905194104 78 138 2.0 2.0 0.00 0.00 0.00 77 1018.6
20260905193604 78 138 2.0 2.0 0.00 0.00 0.00 77 1018.5
20260905193104 78 138 2.0 2.0 0.00 0.00 0.00 77 1018.5
20260905192603 78 135 2.0 5.0 0.00 0.00 0.00 77 1018.5
20260905192104 78 162 2.0 2.0 0.00 0.00 0.00 76 1018.5
20260905191604 78 162 2.0 2.0 0.00 0.00 0.00 76 1018.5
20260905190604 79 136 2.0 5.0 0.00 0.00 0.00 76 1018.4
20260905190104 79 173 2.0 6.0 0.00 0.00 0.00 75 1018.4
20260905185604 79 149 2.0 5.0 0.00 0.00 0.00 75 1018.4
20260905185103 79 135 2.0 5.0 0.00 0.00 0.00 75 1018.2
20260905184604 79 135 2.0 5.0 0.00 0.00 0.00 74 1018.2
20260905184104 79 142 2.0 5.0 0.00 0.00 0.00 74 1018.2
20260905183604 80 128 2.0 3.0 0.00 0.00 0.00 73 1018.0
20260905183104 80 145 2.0 5.0 0.00 0.00 0.00 73 1018.0
20260905182604 80 121 2.0 5.0 0.00 0.00 0.00 72 1018.0
20260905182104 80 136 2.0 6.0 0.00 0.00 0.00 72 1017.7
20260905181604 80 146 2.0 5.0 0.00 0.00 0.00 71 1017.7
20260905181104 80 118 2.0 5.0 0.00 0.00 0.00 71 1017.7
20260905180604 81 138 2.0 6.0 0.00 0.00 0.00 70 1017.5
20260905180104 81 115 3.0 5.0 0.00 0.00 0.00 69 1017.5
20260905175604 81 143 3.0 6.0 0.00 0.00 0.00 69 1017.5
20260905175103 82 148 3.0 6.0 0.00 0.00 0.00 68 1017.4
20260905174604 82 129 3.0 8.0 0.00 0.00 0.00 67 1017.4
20260905173104 83 123 3.0 6.0 0.00 0.00 0.00 66 1017.3
20260905172603 83 129 2.0 6.0 0.00 0.00 0.00 65 1017.3
20260905172104 83 149 3.0 5.0 0.00 0.00 0.00 65 1017.2
20260905171604 83 120 3.0 7.0 0.00 0.00 0.00 65 1017.2
20260905171104 84 115 3.0 5.0 0.00 0.00 0.00 64 1017.2
20260905170604 84 125 3.0 7.0 0.00 0.00 0.00 64 1017.2
20260905170104 84 130 3.0 6.0 0.00 0.00 0.00 64 1017.2
20260905165604 84 128 3.0 8.0 0.00 0.00 0.00 63 1017.2
20260905165105 85 126 4.0 8.0 0.00 0.00 0.00 63 1017.2
20260905164603 85 111 5.0 7.0 0.00 0.00 0.00 62 1017.2
20260905163104 86 118 5.0 9.0 0.00 0.00 0.00 60 1017.1
20260905162604 86 138 5.0 9.0 0.00 0.00 0.00 59 1017.1
20260905162104 87 127 5.0 8.0 0.00 0.00 0.00 59 1017.0
20260905161604 87 107 5.0 8.0 0.00 0.00 0.00 58 1017.0
20260905161103 87 108 5.0 10.0 0.00 0.00 0.00 58 1017.0
20260905155604 88 138 5.0 9.0 0.00 0.00 0.00 56 1017.0
20260905155104 89 112 5.0 12.0 0.00 0.00 0.00 55 1017.0
20260905154603 89 118 5.0 9.0 0.00 0.00 0.00 54 1017.0
20260905154104 90 156 6.0 10.0 0.00 0.00 0.00 54 1017.0
20260905153604 90 137 6.0 9.0 0.00 0.00 0.00 53 1017.0
20260905152604 91 115 5.0 9.0 0.00 0.00 0.00 51 1017.0
20260905152104 91 115 5.0 12.0 0.00 0.00 0.00 50 1017.0
20260905151604 92 128 5.0 10.0 0.00 0.00 0.00 49 1017.0
20260905151104 92 114 5.0 12.0 0.00 0.00 0.00 48 1017.0
20260905150105 93 111 3.0 14.0 0.00 0.00 0.00 47 1017.1
20260905145604 93 143 3.0 7.0 0.00 0.00 0.00 47 1017.1
20260905144604 93 167 3.0 8.0 0.00 0.00 0.00 45 1017.1
20260905144103 93 152 5.0 7.0 0.00 0.00 0.00 43 1017.1
20260905143604 93 139 5.0 10.0 0.00 0.00 0.00 43 1017.1
20260905143104 93 122 5.0 10.0 0.00 0.00 0.00 45 1017.1
20260905142604 93 146 5.0 13.0 0.00 0.00 0.00 45 1017.1
20260905142104 93 118 5.0 8.0 0.00 0.00 0.00 44 1017.3
20260905141103 93 129 5.0 9.0 0.00 0.00 0.00 44 1017.3
20260905140604 93 127 6.0 7.0 0.00 0.00 0.00 45 1017.4
20260905140104 93 121 5.0 9.0 0.00 0.00 0.00 44 1017.4
20260905135604 93 114 5.0 12.0 0.00 0.00 0.00 43 1017.4
20260905135104 93 117 3.0 10.0 0.00 0.00 0.00 43 1017.5
20260905134603 93 109 3.0 8.0 0.00 0.00 0.00 45 1017.5
20260905134104 93 109 5.0 7.0 0.00 0.00 0.00 44 1017.5
20260905133604 92 122 6.0 10.0 0.00 0.00 0.00 46 1017.6
20260905133104 93 114 6.0 12.0 0.00 0.00 0.00 45 1017.6
20260905132604 93 120 6.0 9.0 0.00 0.00 0.00 44 1017.6
20260905132104 93 120 5.0 10.0 0.00 0.00 0.00 45 1017.8
20260905131604 93 109 5.0 10.0 0.00 0.00 0.00 45 1017.8
20260905131104 93 118 3.0 9.0 0.00 0.00 0.00 45 1017.8
20260905130604 93 123 2.0 8.0 0.00 0.00 0.00 45 1017.9
20260905130104 93 46 2.0 5.0 0.00 0.00 0.00 46 1017.9
20260905125604 93 149 2.0 6.0 0.00 0.00 0.00 45 1017.9
20260905125104 93 137 3.0 5.0 0.00 0.00 0.00 46 1017.9
20260905124604 93 129 3.0 6.0 0.00 0.00 0.00 46 1017.9
20260905124103 93 141 2.0 6.0 0.00 0.00 0.00 46 1017.9
20260905123604 93 117 2.0 6.0 0.00 0.00 0.00 46 1018.0
20260905123104 93 75 3.0 6.0 0.00 0.00 0.00 46 1018.0
20260905122603 93 155 3.0 6.0 0.00 0.00 0.00 47 1018.0
20260905122104 93 132 3.0 7.0 0.00 0.00 0.00 47 1018.1
20260905121604 92 133 3.0 6.0 0.00 0.00 0.00 47 1018.1
20260905120604 92 157 5.0 8.0 0.00 0.00 0.00 48 1018.2
20260905120103 92 133 3.0 12.0 0.00 0.00 0.00 48 1018.2
20260905115604 92 129 3.0 7.0 0.00 0.00 0.00 48 1018.2
20260905115104 92 154 4.0 5.0 0.00 0.00 0.00 49 1018.2
20260905114604 91 122 5.0 6.0 0.00 0.00 0.00 48 1018.2
20260905114104 91 108 3.0 8.0 0.00 0.00 0.00 48 1018.2
20260905113604 92 108 2.0 8.0 0.00 0.00 0.00 48 1018.3
20260905113104 92 120 2.0 6.0 0.00 0.00 0.00 49 1018.3
20260905112104 92 145 2.0 6.0 0.00 0.00 0.00 48 1018.5
20260905111604 92 138 2.0 6.0 0.00 0.00 0.00 49 1018.5
20260905111104 91 125 3.0 5.0 0.00 0.00 0.00 48 1018.5
20260905110604 91 138 3.0 7.0 0.00 0.00 0.00 49 1018.4
20260905110104 91 142 3.0 8.0 0.00 0.00 0.00 50 1018.4
20260905105604 90 148 3.0 6.0 0.00 0.00 0.00 50 1018.4
20260905105104 90 146 3.0 7.0 0.00 0.00 0.00 50 1018.5
20260905104604 90 111 3.0 9.0 0.00 0.00 0.00 50 1018.5
20260905104104 90 302 3.0 7.0 0.00 0.00 0.00 50 1018.5
20260905103604 91 136 3.0 6.0 0.00 0.00 0.00 50 1018.5
20260905103104 91 186 2.0 6.0 0.00 0.00 0.00 50 1018.5
20260905102604 91 114 2.0 6.0 0.00 0.00 0.00 50 1018.5
20260905102104 90 134 2.0 5.0 0.00 0.00 0.00 50 1018.7
20260905101604 90 153 2.0 7.0 0.00 0.00 0.00 52 1018.7
20260905100604 89 107 2.0 6.0 0.00 0.00 0.00 51 1018.7
20260905095604 89 102 3.0 5.0 0.00 0.00 0.00 52 1018.7
20260905095104 89 108 3.0 8.0 0.00 0.00 0.00 51 1018.7
20260905094604 89 132 3.0 5.0 0.00 0.00 0.00 52 1018.7
20260905094104 89 124 3.0 8.0 0.00 0.00 0.00 53 1018.7
20260905093604 88 114 3.0 7.0 0.00 0.00 0.00 53 1018.8
20260905092604 89 105 2.0 8.0 0.00 0.00 0.00 53 1018.8
20260905092104 89 117 2.0 8.0 0.00 0.00 0.00 52 1018.7
20260905091605 88 138 2.0 6.0 0.00 0.00 0.00 52 1018.7
20260905091104 88 147 2.0 6.0 0.00 0.00 0.00 53 1018.7
20260905090604 88 291 2.0 6.0 0.00 0.00 0.00 54 1018.7
20260905085604 87 73 2.0 5.0 0.00 0.00 0.00 55 1018.7
20260905085104 87 208 2.0 6.0 0.00 0.00 0.00 56 1018.5
20260905084604 87 110 2.0 5.0 0.00 0.00 0.00 55 1018.5
20260905084104 86 125 3.0 6.0 0.00 0.00 0.00 56 1018.5
20260905083604 86 214 3.0 6.0 0.00 0.00 0.00 57 1018.4
20260905083104 86 122 2.0 6.0 0.00 0.00 0.00 57 1018.4
20260905082604 86 148 2.0 6.0 0.00 0.00 0.00 57 1018.4
20260905082104 85 113 2.0 5.0 0.00 0.00 0.00 58 1018.4
20260905081604 85 138 2.0 6.0 0.00 0.00 0.00 58 1018.4
20260905080604 84 128 2.0 6.0 0.00 0.00 0.00 59 1018.5
20260905080104 84 109 2.0 5.0 0.00 0.00 0.00 59 1018.5
20260905075603 84 130 2.0 7.0 0.00 0.00 0.00 60 1018.5
20260905075104 84 122 2.0 5.0 0.00 0.00 0.00 60 1018.4
20260905074604 83 141 2.0 5.0 0.00 0.00 0.00 60 1018.4
20260905073604 83 159 2.0 5.0 0.00 0.00 0.00 61 1018.3
20260905073103 83 114 2.0 6.0 0.00 0.00 0.00 62 1018.3
20260905072604 82 114 2.0 6.0 0.00 0.00 0.00 63 1018.3
20260905072104 81 133 1.0 5.0 0.00 0.00 0.00 65 1018.6
20260905071603 80 291 1.0 2.0 0.00 0.00 0.00 66 1018.6
20260905071105 80 285 0.0 3.0 0.00 0.00 0.00 66 1018.6
20260905070104 78 104 0.0 2.0 0.00 0.00 0.00 70 1018.5
20260905065604 77 105 0.0 2.0 0.00 0.00 0.00 71 1018.5
20260905065104 77 103 1.0 2.0 0.00 0.00 0.00 73 1018.4
20260905064604 76 115 1.0 2.0 0.00 0.00 0.00 74 1018.4
20260905064103 75 110 1.0 2.0 0.00 0.00 0.00 74 1018.4
20260905063604 75 109 1.0 2.0 0.00 0.00 0.00 75 1018.3
20260905063104 75 109 0.0 2.0 0.00 0.00 0.00 75 1018.3
20260905062604 74 110 0.0 2.0 0.00 0.00 0.00 76 1018.3
20260905062103 74 110 0.0 2.0 0.00 0.00 0.00 77 1018.3
20260905061604 74 110 0.0 2.0 0.00 0.00 0.00 78 1018.3
20260905061104 73 110 0.0 2.0 0.00 0.00 0.00 78 1018.3
20260905060604 73 110 0.0 1.0 0.00 0.00 0.00 79 1018.1
20260905060104 72 110 0.0 2.0 0.00 0.00 0.00 79 1018.1
20260905055603 72 110 0.0 1.0 0.00 0.00 0.00 80 1018.1
20260905054604 71 110 1.0 2.0 0.00 0.00 0.00 80 1017.9
20260905053604 70 130 0.0 2.0 0.00 0.00 0.00 80 1017.8
20260905052604 70 130 0.0 2.0 0.00 0.00 0.00 77 1017.8
20260905051604 70 130 0.0 0.0 0.00 0.00 0.00 74 1017.7
20260905051104 70 130 0.0 0.0 0.00 0.00 0.00 74 1017.7
20260905050604 70 130 0.0 0.0 0.00 0.00 0.00 74 1017.6
20260905050104 70 130 0.0 0.0 0.00 0.00 0.00 73 1017.6
20260905045604 70 130 0.0 0.0 0.00 0.00 0.00 72 1017.6
20260905045103 70 130 0.0 0.0 0.00 0.00 0.00 71 1017.3
20260905044603 69 130 0.0 2.0 0.00 0.00 0.00 70 1017.3
20260905044104 69 130 0.0 2.0 0.00 0.00 0.00 69 1017.3
20260905043604 70 130 0.0 0.0 0.00 0.00 0.00 67 1017.2
20260905043104 70 130 0.0 0.0 0.00 0.00 0.00 66 1017.2
20260905042104 70 130 0.0 2.0 0.00 0.00 0.00 66 1017.5
20260905041604 70 130 0.0 2.0 0.00 0.00 0.00 65 1017.5
20260905041104 70 130 0.0 1.0 0.00 0.00 0.00 65 1017.5
20260905040604 70 130 0.0 2.0 0.00 0.00 0.00 64 1017.5
20260905040104 70 130 0.0 0.0 0.00 0.00 0.00 63 1017.5
20260905035604 70 130 0.0 0.0 0.00 0.00 0.00 62 1017.5
20260905035103 70 130 1.0 1.0 0.00 0.00 0.00 61 1017.4
20260905034604 70 130 1.0 2.0 0.00 0.00 0.00 60 1017.4
20260905034104 70 130 0.0 3.0 0.00 0.00 0.00 59 1017.4
20260905033604 70 133 0.0 3.0 0.00 0.00 0.00 59 1017.5
20260905033104 70 134 0.0 2.0 0.00 0.00 0.00 57 1017.5
20260905032604 70 134 0.0 2.0 0.00 0.00 0.00 58 1017.5
20260905032104 70 135 0.0 2.0 0.00 0.00 0.00 58 1017.4
20260905031603 70 134 0.0 1.0 0.00 0.00 0.00 59 1017.4
20260905030604 70 134 0.0 2.0 0.00 0.00 0.00 59 1017.5
20260905030104 70 134 0.0 1.0 0.00 0.00 0.00 58 1017.5
20260905025104 70 134 0.0 0.0 0.00 0.00 0.00 59 1017.8
20260905024604 71 134 0.0 2.0 0.00 0.00 0.00 58 1017.8
20260905024104 71 134 0.0 1.0 0.00 0.00 0.00 59 1017.8
20260905023604 71 135 0.0 2.0 0.00 0.00 0.00 58 1017.7
20260905023104 71 134 0.0 2.0 0.00 0.00 0.00 57 1017.7
20260905021603 71 134 0.0 2.0 0.00 0.00 0.00 57 1017.7
20260905020104 71 134 1.0 2.0 0.00 0.00 0.00 57 1017.6
20260905015603 71 134 1.0 1.0 0.00 0.00 0.00 56 1017.6
20260905015104 71 135 2.0 2.0 0.00 0.00 0.00 56 1017.9
20260905014104 72 134 2.0 3.0 0.00 0.00 0.00 55 1017.9
20260905013104 72 135 2.0 2.0 0.00 0.00 0.00 53 1017.8
20260905012603 72 134 2.0 5.0 0.00 0.00 0.00 53 1017.8
20260905012103 73 139 1.0 5.0 0.00 0.00 0.00 52 1018.0
20260905011603 73 151 1.0 2.0 0.00 0.00 0.00 51 1018.0
20260905011103 73 152 0.0 2.0 0.00 0.00 0.00 50 1018.0
20260905010604 74 152 0.0 2.0 0.00 0.00 0.00 50 1017.9
20260905010104 74 152 0.0 2.0 0.00 0.00 0.00 49 1017.9
20260905005103 74 152 0.0 0.0 0.00 0.00 0.00 47 1017.9
20260905004104 75 152 2.0 0.0 0.00 0.00 0.00 46 1017.9
20260905003604 75 152 2.0 1.0 0.00 0.00 0.00 46 1017.9
20260905003104 75 152 1.0 3.0 0.00 0.00 0.00 46 1017.9
20260905002604 75 142 0.0 3.0 0.00 0.00 0.00 45 1017.9
20260905002104 75 158 0.0 0.0 0.00 0.00 0.00 45 1017.9
20260905001603 75 158 0.0 2.0 0.00 0.00 0.00 45 1017.9
20260905001104 75 158 0.0 1.0 0.00 0.00 0.00 44 1017.9
20260905000603 75 158 0.0 2.0 0.00 0.00 0.00 44 1017.9
20260904235104 76 152 1.0 2.0 0.00 0.00 0.00 44 1017.8
20260904234104 76 157 0.0 2.0 0.00 0.00 0.00 44 1017.8
20260904233104 77 157 0.0 2.0 0.00 0.00 0.00 43 1018.0
20260904232603 77 157 0.0 2.0 0.00 0.00 0.00 42 1018.0
20260904232105 77 174 0.0 3.0 0.00 0.00 0.00 41 1018.1
20260904231604 77 201 0.0 2.0 0.00 0.00 0.00 41 1018.1
20260904231104 78 201 2.0 2.0 0.00 0.00 0.00 40 1018.1
20260904225605 78 163 2.0 5.0 0.00 0.00 0.00 39 1018.1
20260904225104 78 129 2.0 5.0 0.00 0.00 0.00 38 1017.9
20260904224106 78 158 1.0 3.0 0.00 0.00 0.00 37 1017.9
20260904223604 78 160 1.0 5.0 0.00 0.00 0.00 36 1017.9
20260904221605 78 153 2.0 2.0 0.00 0.00 0.00 36 1018.0
20260904221105 78 153 2.0 5.0 0.00 0.00 0.00 36 1018.0
20260904220606 78 139 2.0 5.0 0.00 0.00 0.00 36 1018.0
20260904220105 78 130 2.0 3.0 0.00 0.00 0.00 37 1018.0
20260904215604 78 142 2.0 5.0 0.00 0.00 0.00 37 1018.0
20260904215104 78 142 2.0 5.0 0.00 0.00 0.00 37 1017.9
20260904214606 78 179 2.0 3.0 0.00 0.00 0.00 37 1017.9
20260904214103 78 112 2.0 5.0 0.00 0.00 0.00 38 1017.9
20260904213603 78 127 2.0 5.0 0.00 0.00 0.00 38 1018.0